Location: Newark
(50.0306°N, 2.3272°E)
Time: 16:49:14
(UTC+00:00)

Transit 2A Rocket - Pass Details

Date: 09 December 2019
Orbit: 593 x 910 km, 66.7° (Epoch: 27 January)

Event Time Altitude Azimuth Distance (km) Brightness Sun altitude
Rises 16:56:14 0° 216° (SW) 2,953 9.2 -10.2°
Reaches altitude 10° 16:58:34 10° 216° (SW) 2,009 8.2 -10.6°
Maximum altitude 17:03:04 87° 307° (NW) 615 4.5 -11.2°
Enters shadow 17:06:58 13° 36° (NE) 1,768 6.4 -11.8°
Drops below altitude 10° 17:07:24 10° 36° (NE) 1,939 - -11.9°
Sets 17:09:37 0° 37° (NE) 2,841 - -12.2°
